YMA56A MMVA-MHLM

Flight info

Callsign YMA56A
Flight time 0h 54m
Altitude 36000
Route OLORI DCT PESGA
Aircraft A20N/M-SDE2E3FGHIRWXY/LB1

Departure

Time 2026-04-21 09:10
Airport Carlos Rovirosa Pérez International Airport (MMVA)

Arrival

Time 2026-04-21 10:05
Airport Ramón Villeda Morales International Airport (MHLM)
Time Latitude Longitude Altitude Speed Heading
2026-04-21 08:56 17.99359 -92.81934 54 ft 0 kts 177°
2026-04-21 09:04 17.99375 -92.81935 56 ft 4 kts 177°
2026-04-21 09:04 17.99402 -92.81937 56 ft 4 kts 177°
2026-04-21 09:05 17.99424 -92.81928 57 ft 4 kts 229°
2026-04-21 09:05 17.99431 -92.81915 57 ft 0 kts 256°
2026-04-21 09:05 17.99430 -92.81915 57 ft 0 kts 256°
2026-04-21 09:06 17.99429 -92.81923 57 ft 2 kts 255°
2026-04-21 09:06 17.99423 -92.81945 56 ft 0 kts 258°
2026-04-21 09:07 17.99427 -92.81980 53 ft 12 kts 295°
2026-04-21 09:08 17.99502 -92.82041 52 ft 12 kts 310°
2026-04-21 09:08 17.99555 -92.82162 50 ft 24 kts 298°
2026-04-21 09:08 17.99635 -92.82351 46 ft 31 kts 271°
2026-04-21 09:08 17.99627 -92.82566 43 ft 29 kts 267°
2026-04-21 09:09 17.99582 -92.82728 42 ft 12 kts 314°
2026-04-21 09:09 17.99629 -92.82720 42 ft 9 kts 69°
2026-04-21 09:09 17.99635 -92.82662 43 ft 8 kts 86°
2026-04-21 09:09 17.99657 -92.82413 45 ft 70 kts 83°
2026-04-21 09:10 17.99694 -92.81671 56 ft 132 kts 86°
2026-04-21 09:10 17.99732 -92.80536 126 ft 174 kts 85°
2026-04-21 09:10 17.99788 -92.79205 515 ft 192 kts 84°
2026-04-21 09:10 17.99917 -92.77771 1064 ft 205 kts 79°
2026-04-21 09:11 18.00074 -92.76280 1806 ft 210 kts 82°
2026-04-21 09:11 18.00170 -92.74729 2494 ft 221 kts 84°
2026-04-21 09:11 18.00259 -92.73063 3049 ft 239 kts 84°
2026-04-21 09:11 18.00360 -92.71261 3618 ft 256 kts 85°
2026-04-21 09:12 18.00466 -92.69377 4410 ft 263 kts 85°
2026-04-21 09:12 18.00575 -92.67477 5333 ft 265 kts 85°
2026-04-21 09:12 18.00689 -92.65556 6214 ft 268 kts 86°
2026-04-21 09:12 18.00773 -92.63610 7062 ft 271 kts 92°
2026-04-21 09:13 18.00381 -92.61676 7846 ft 277 kts 111°
2026-04-21 09:13 17.99404 -92.59931 8636 ft 282 kts 124°
2026-04-21 09:13 17.98316 -92.58218 9382 ft 285 kts 116°
2026-04-21 09:13 17.97669 -92.56267 10105 ft 288 kts 98°
2026-04-21 09:14 17.97394 -92.54161 10652 ft 298 kts 95°
2026-04-21 09:14 17.97163 -92.51942 10997 ft 315 kts 95°
2026-04-21 09:14 17.96937 -92.49580 11293 ft 333 kts 94°
2026-04-21 09:14 17.96707 -92.47115 11569 ft 350 kts 94°
2026-04-21 09:15 17.96466 -92.44520 11950 ft 362 kts 94°
2026-04-21 09:15 17.96219 -92.41874 12544 ft 366 kts 94°
2026-04-21 09:15 17.95971 -92.39220 13128 ft 369 kts 94°
2026-04-21 09:15 17.95721 -92.36538 13690 ft 372 kts 93°
2026-04-21 09:16 17.95472 -92.33843 14254 ft 375 kts 94°
2026-04-21 09:16 17.95220 -92.31118 14818 ft 377 kts 94°
2026-04-21 09:16 17.94964 -92.28380 15388 ft 380 kts 94°
2026-04-21 09:16 17.94681 -92.25628 15927 ft 383 kts 97°
2026-04-21 09:17 17.94105 -92.22894 16458 ft 387 kts 105°
2026-04-21 09:17 17.93171 -92.20237 16979 ft 391 kts 112°
2026-04-21 09:17 17.91982 -92.17676 17509 ft 393 kts 115°
2026-04-21 09:17 17.90740 -92.15115 18030 ft 396 kts 115°
2026-04-21 09:18 17.89487 -92.12545 18492 ft 400 kts 115°
2026-04-21 09:18 17.88219 -92.09942 18938 ft 404 kts 115°
2026-04-21 09:18 17.86942 -92.07315 19396 ft 407 kts 115°
2026-04-21 09:18 17.85658 -92.04665 19830 ft 411 kts 116°
2026-04-21 09:19 17.84359 -92.01984 20257 ft 415 kts 116°
2026-04-21 09:19 17.83051 -91.99285 20662 ft 419 kts 116°
2026-04-21 09:19 17.81731 -91.96558 21055 ft 423 kts 116°
2026-04-21 09:19 17.80395 -91.93801 21454 ft 427 kts 116°
2026-04-21 09:20 17.79047 -91.91020 21839 ft 431 kts 116°
2026-04-21 09:20 17.77692 -91.88221 22242 ft 433 kts 116°
2026-04-21 09:20 17.76327 -91.85405 22661 ft 436 kts 116°
2026-04-21 09:20 17.74952 -91.82570 23079 ft 439 kts 116°
2026-04-21 09:21 17.73569 -91.79720 23484 ft 441 kts 117°
2026-04-21 09:21 17.72176 -91.76851 23891 ft 444 kts 117°
2026-04-21 09:21 17.70775 -91.73967 24301 ft 446 kts 117°
2026-04-21 09:21 17.69367 -91.71069 24684 ft 449 kts 117°
2026-04-21 09:22 17.67948 -91.68152 25068 ft 451 kts 117°
2026-04-21 09:22 17.66526 -91.65228 25434 ft 454 kts 117°
2026-04-21 09:22 17.65085 -91.62269 25806 ft 456 kts 118°
2026-04-21 09:22 17.63646 -91.59314 26162 ft 458 kts 118°
2026-04-21 09:23 17.62196 -91.56337 26525 ft 460 kts 118°
2026-04-21 09:23 17.60743 -91.53355 26879 ft 462 kts 118°
2026-04-21 09:23 17.59282 -91.50359 27216 ft 464 kts 118°
2026-04-21 09:23 17.57819 -91.47360 27576 ft 465 kts 118°
2026-04-21 09:24 17.56352 -91.44353 28052 ft 463 kts 118°
2026-04-21 09:24 17.54899 -91.41374 28554 ft 461 kts 119°
2026-04-21 09:24 17.53448 -91.38401 29017 ft 459 kts 119°
2026-04-21 09:24 17.51998 -91.35434 29440 ft 459 kts 119°
2026-04-21 09:25 17.50547 -91.32470 29868 ft 458 kts 119°
2026-04-21 09:25 17.49098 -91.29510 30283 ft 457 kts 120°
2026-04-21 09:25 17.47652 -91.26557 30674 ft 457 kts 120°
2026-04-21 09:25 17.46205 -91.23604 31068 ft 457 kts 120°
2026-04-21 09:26 17.44741 -91.20616 31461 ft 456 kts 119°
2026-04-21 09:26 17.43289 -91.17653 31836 ft 456 kts 120°
2026-04-21 09:26 17.41845 -91.14705 32185 ft 456 kts 120°
2026-04-21 09:26 17.40396 -91.11753 32524 ft 456 kts 120°
2026-04-21 09:27 17.38952 -91.08809 32851 ft 456 kts 120°
2026-04-21 09:27 17.37510 -91.05873 33221 ft 455 kts 120°
2026-04-21 09:27 17.36067 -91.02934 33591 ft 455 kts 120°
2026-04-21 09:27 17.34626 -91.00003 33947 ft 454 kts 120°
2026-04-21 09:28 17.33186 -90.97074 34290 ft 454 kts 119°
2026-04-21 09:28 17.31747 -90.94149 34578 ft 454 kts 120°
2026-04-21 09:28 17.30306 -90.91220 34797 ft 456 kts 119°
2026-04-21 09:28 17.28854 -90.88272 34994 ft 458 kts 119°
2026-04-21 09:29 17.27399 -90.85318 35202 ft 459 kts 119°
2026-04-21 09:29 17.25939 -90.82354 35415 ft 460 kts 119°
2026-04-21 09:29 17.24475 -90.79385 35623 ft 461 kts 119°
2026-04-21 09:29 17.23012 -90.76418 35820 ft 461 kts 119°
2026-04-21 09:30 17.21545 -90.73445 35995 ft 463 kts 119°
2026-04-21 09:30 17.20070 -90.70455 36031 ft 464 kts 119°
2026-04-21 09:30 17.17113 -90.64468 36038 ft 465 kts 119°
2026-04-21 09:31 17.14154 -90.58482 36041 ft 465 kts 119°
2026-04-21 09:31 17.11193 -90.52499 36042 ft 464 kts 119°
2026-04-21 09:32 17.08232 -90.46520 36048 ft 465 kts 119°
2026-04-21 09:32 17.05269 -90.40543 36053 ft 465 kts 119°
2026-04-21 09:33 17.02302 -90.34564 36053 ft 465 kts 119°
2026-04-21 09:33 16.99333 -90.28585 36052 ft 465 kts 119°
2026-04-21 09:34 16.96362 -90.22608 36053 ft 465 kts 119°
2026-04-21 09:34 16.93391 -90.16637 36050 ft 464 kts 119°
2026-04-21 09:35 16.90419 -90.10667 36052 ft 464 kts 119°
2026-04-21 09:35 16.87451 -90.04713 36052 ft 463 kts 119°
2026-04-21 09:36 16.84476 -89.98750 36049 ft 463 kts 119°
2026-04-21 09:36 16.81504 -89.92797 36049 ft 464 kts 119°
2026-04-21 09:37 16.78528 -89.86839 36048 ft 464 kts 119°
2026-04-21 09:37 16.75548 -89.80883 36052 ft 465 kts 119°
2026-04-21 09:38 16.72561 -89.74914 36051 ft 464 kts 119°
2026-04-21 09:38 16.69577 -89.68955 36055 ft 464 kts 119°
2026-04-21 09:39 16.66596 -89.63016 36065 ft 463 kts 120°
2026-04-21 09:39 16.63276 -89.57295 36067 ft 462 kts 126°
2026-04-21 09:40 16.59361 -89.52025 36078 ft 460 kts 133°
2026-04-21 09:40 16.55009 -89.47165 36080 ft 459 kts 135°
2026-04-21 09:41 16.50611 -89.42349 36080 ft 459 kts 135°
2026-04-21 09:41 16.46223 -89.37532 36085 ft 459 kts 135°
2026-04-21 09:42 16.41819 -89.32694 35518 ft 460 kts 135°
2026-04-21 09:42 16.39601 -89.30260 34493 ft 466 kts 135°
2026-04-21 09:42 16.37361 -89.27782 33382 ft 472 kts 133°
2026-04-21 09:43 16.35333 -89.25090 32392 ft 477 kts 126°
2026-04-21 09:43 16.33626 -89.22104 31518 ft 480 kts 118°
2026-04-21 09:43 16.32288 -89.18878 30602 ft 483 kts 110°
2026-04-21 09:43 16.31365 -89.15485 29807 ft 482 kts 103°
2026-04-21 09:44 16.30740 -89.12036 29087 ft 479 kts 101°
2026-04-21 09:44 16.30171 -89.08594 28352 ft 476 kts 101°
2026-04-21 09:44 16.29617 -89.05208 27586 ft 475 kts 101°
2026-04-21 09:44 16.29060 -89.01836 26912 ft 471 kts 101°
2026-04-21 09:45 16.28508 -88.98523 26423 ft 463 kts 101°
2026-04-21 09:45 16.27955 -88.95245 25918 ft 456 kts 101°
2026-04-21 09:45 16.27407 -88.92023 25406 ft 451 kts 100°
2026-04-21 09:45 16.26862 -88.88826 24883 ft 446 kts 100°
2026-04-21 09:46 16.26323 -88.85670 24348 ft 442 kts 100°
2026-04-21 09:46 16.25784 -88.82521 23798 ft 439 kts 100°
2026-04-21 09:46 16.25252 -88.79416 23256 ft 436 kts 100°
2026-04-21 09:46 16.24719 -88.76311 22716 ft 433 kts 100°
2026-04-21 09:47 16.24186 -88.73207 22191 ft 430 kts 99°
2026-04-21 09:47 16.23664 -88.70168 21713 ft 425 kts 99°
2026-04-21 09:47 16.23143 -88.67138 21233 ft 421 kts 99°
2026-04-21 09:47 16.22627 -88.64151 20726 ft 418 kts 99°
2026-04-21 09:48 16.22105 -88.61123 20181 ft 415 kts 99°
2026-04-21 09:48 16.21587 -88.58112 19638 ft 412 kts 99°
2026-04-21 09:48 16.21082 -88.55186 19091 ft 410 kts 99°
2026-04-21 09:48 16.20579 -88.52267 18548 ft 408 kts 99°
2026-04-21 09:49 16.20078 -88.49366 18021 ft 405 kts 99°
2026-04-21 09:49 16.19582 -88.46499 17511 ft 401 kts 99°
2026-04-21 09:49 16.19090 -88.43647 17019 ft 398 kts 99°
2026-04-21 09:49 16.18602 -88.40828 16534 ft 394 kts 99°
2026-04-21 09:50 16.18113 -88.38008 16032 ft 391 kts 99°
2026-04-21 09:50 16.17622 -88.35177 15525 ft 388 kts 99°
2026-04-21 09:50 16.17143 -88.32417 15015 ft 385 kts 99°
2026-04-21 09:50 16.16665 -88.29671 14511 ft 382 kts 99°
2026-04-21 09:51 16.16192 -88.26951 14022 ft 379 kts 100°
2026-04-21 09:51 16.15725 -88.24268 13531 ft 376 kts 100°
2026-04-21 09:51 16.15259 -88.21594 13049 ft 372 kts 100°
2026-04-21 09:51 16.14798 -88.18963 12546 ft 370 kts 100°
2026-04-21 09:52 16.14339 -88.16346 12155 ft 363 kts 99°
2026-04-21 09:52 16.13895 -88.13805 11910 ft 352 kts 99°
2026-04-21 09:52 16.13465 -88.11354 11749 ft 338 kts 99°
2026-04-21 09:52 16.13051 -88.08984 11606 ft 326 kts 99°
2026-04-21 09:53 16.12651 -88.06708 11409 ft 315 kts 100°
2026-04-21 09:53 16.11917 -88.04597 11194 ft 308 kts 124°
2026-04-21 09:53 16.10335 -88.03149 10890 ft 306 kts 153°
2026-04-21 09:53 16.08249 -88.02302 10538 ft 304 kts 158°
2026-04-21 09:54 16.06206 -88.01481 10178 ft 301 kts 156°
2026-04-21 09:54 16.04165 -88.00626 9808 ft 298 kts 156°
2026-04-21 09:54 16.02161 -87.99769 9440 ft 296 kts 155°
2026-04-21 09:54 16.00129 -87.98888 9067 ft 294 kts 155°
2026-04-21 09:55 15.98203 -87.98049 8710 ft 292 kts 155°
2026-04-21 09:55 15.96301 -87.97218 8363 ft 290 kts 155°
2026-04-21 09:55 15.94435 -87.96404 8019 ft 288 kts 155°
2026-04-21 09:55 15.92575 -87.95593 7672 ft 287 kts 154°
2026-04-21 09:56 15.90737 -87.94791 7331 ft 285 kts 154°
2026-04-21 09:56 15.88902 -87.93992 6987 ft 284 kts 154°
2026-04-21 09:56 15.87105 -87.93148 6643 ft 281 kts 150°
2026-04-21 09:56 15.85393 -87.92184 6305 ft 279 kts 148°
2026-04-21 09:57 15.83698 -87.91197 5968 ft 278 kts 147°
2026-04-21 09:57 15.82022 -87.90215 5637 ft 277 kts 148°
2026-04-21 09:57 15.80348 -87.89236 5311 ft 275 kts 148°
2026-04-21 09:57 15.78687 -87.88269 5021 ft 272 kts 148°
2026-04-21 09:58 15.77062 -87.87325 4926 ft 260 kts 148°
2026-04-21 09:58 15.75518 -87.86428 4847 ft 248 kts 148°
2026-04-21 09:58 15.74042 -87.85571 4767 ft 239 kts 148°
2026-04-21 09:58 15.72589 -87.84725 4637 ft 241 kts 148°
2026-04-21 09:59 15.71135 -87.83868 4350 ft 240 kts 148°
2026-04-21 09:59 15.69685 -87.83012 4069 ft 239 kts 148°
2026-04-21 09:59 15.68251 -87.82165 3793 ft 237 kts 148°
2026-04-21 09:59 15.66821 -87.81321 3519 ft 235 kts 148°
2026-04-21 10:00 15.65402 -87.80483 3247 ft 234 kts 148°
2026-04-21 10:00 15.63990 -87.79651 2979 ft 232 kts 148°
2026-04-21 10:00 15.62581 -87.78846 2697 ft 232 kts 155°
2026-04-21 10:00 15.61009 -87.78612 2402 ft 232 kts 195°
2026-04-21 10:01 15.59648 -87.79451 2416 ft 232 kts 222°
2026-04-21 10:01 15.58469 -87.80602 2444 ft 232 kts 225°
2026-04-21 10:01 15.57312 -87.81768 2468 ft 229 kts 223°
2026-04-21 10:01 15.56172 -87.82833 2458 ft 216 kts 221°
2026-04-21 10:02 15.53906 -87.84813 2019 ft 211 kts 220°
2026-04-21 10:02 15.52787 -87.85785 1747 ft 209 kts 220°
2026-04-21 10:02 15.51677 -87.86756 1478 ft 208 kts 220°
2026-04-21 10:03 15.50591 -87.87706 1293 ft 196 kts 220°
2026-04-21 10:03 15.49595 -87.88575 1033 ft 181 kts 220°
2026-04-21 10:03 15.48666 -87.89385 765 ft 168 kts 220°
2026-04-21 10:03 15.47814 -87.90131 540 ft 153 kts 220°
2026-04-21 10:04 15.47039 -87.90806 340 ft 140 kts 220°
2026-04-21 10:04 15.46296 -87.91456 180 ft 139 kts 220°
2026-04-21 10:04 15.45588 -87.92073 115 ft 120 kts 220°
2026-04-21 10:04 15.45055 -87.92538 118 ft 82 kts 220°
2026-04-21 10:05 15.44738 -87.92816 118 ft 45 kts 220°
2026-04-21 10:05 15.44568 -87.92963 119 ft 24 kts 221°
2026-04-21 10:05 15.44555 -87.93095 119 ft 14 kts 326°
2026-04-21 10:05 15.44645 -87.93060 118 ft 15 kts 39°
2026-04-21 10:06 15.44730 -87.92985 117 ft 21 kts 41°
2026-04-21 10:06 15.44882 -87.92849 117 ft 36 kts 40°
2026-04-21 10:06 15.45105 -87.92651 116 ft 44 kts 41°
2026-04-21 10:06 15.45240 -87.92535 117 ft 20 kts 21°
2026-04-21 10:07 15.45385 -87.92632 115 ft 23 kts 343°
2026-04-21 10:07 15.45481 -87.92663 115 ft 9 kts 318°
2026-04-21 10:07 15.45515 -87.92706 115 ft 0 kts 306°
2026-04-21 10:07 15.45516 -87.92708 115 ft 0 kts 306°